When you browse on this site, cookies collect data to enhance your experience and personalize the content and advertising you see.
Visit our Privacy Policy to learn more. By continuing to use the site, you agree to this use of cookies and data.
  • In Romania
  • List of Countries
  • For 7 days
  • Water Temperature
  • Satellite Maps
  • Weather Map
  • Weather Widgets
  • user-avatar
    Login

    Hourly Weather Świdwin

    Today, 24 May, Friday

    Time Temperature Precipitation Wind Pressure Humidity
    00:00 +9°C° 0 mm 1 mps 752 mmHg 85%
    01:00 +9°C° 0 mm 1 mps 752 mmHg 84%
    02:00 +9°C° 0 mm 1 mps 752 mmHg 84%
    03:00 +8°C° 0 mm 2 mps 752 mmHg 84%
    04:00 +8°C° 0 mm 2 mps 752 mmHg 84%
    05:00 +9°C° 0 mm 2 mps 752 mmHg 81%
    06:00 +12°C° 0 mm 2 mps 752 mmHg 77%
    07:00 +14°C° 0 mm 2 mps 752 mmHg 73%
    08:00 +14°C° 0 mm 3 mps 751 mmHg 68%
    09:00 +17°C° 0 mm 3 mps 751 mmHg 63%
    10:00 +18°C° 0 mm 3 mps 751 mmHg 57%
    11:00 +19°C° 0 mm 3 mps 751 mmHg 56%
    12:00 +20°C° 0 mm 3 mps 751 mmHg 54%
    13:00 +20°C° 0 mm 4 mps 750 mmHg 52%
    14:00 +20°C° 0 mm 4 mps 750 mmHg 55%
    15:00 +20°C° 0 mm 4 mps 749 mmHg 57%
    16:00 +20°C° 0 mm 4 mps 749 mmHg 60%
    17:00 +19°C° 0.1 mm 3 mps 749 mmHg 65%
    18:00 +18°C° 0.1 mm 2 mps 748 mmHg 71%
    19:00 +18°C° 0.1 mm 1 mps 748 mmHg 77%
    20:00 +16°C° 0 mm 2 mps 748 mmHg 79%
    21:00 +15°C° 0 mm 2 mps 748 mmHg 81%
    22:00 +14°C° 0 mm 2 mps 748 mmHg 84%
    23:00 +13°C° 0 mm 2 mps 748 mmHg 87%

    Tomorrow, 25 May, Saturday

    Time Temperature Precipitation Wind Pressure Humidity
    00:00 +12°C° 0 mm 2 mps 748 mmHg 91%
    01:00 +10°C° 0 mm 2 mps 748 mmHg 94%
    02:00 +9°C° 0 mm 2 mps 748 mmHg 95%
    03:00 +8°C° 0 mm 2 mps 748 mmHg 96%
    04:00 +8°C° 0 mm 3 mps 748 mmHg 97%
    05:00 +9°C° 0 mm 3 mps 748 mmHg 93%
    06:00 +10°C° 0 mm 4 mps 748 mmHg 90%
    07:00 +10°C° 0 mm 4 mps 748 mmHg 87%
    08:00 +11°C° 0 mm 4 mps 749 mmHg 84%
    09:00 +11°C° 0 mm 4 mps 749 mmHg 81%
    10:00 +12°C° 0 mm 4 mps 749 mmHg 79%
    11:00 +12°C° 0 mm 5 mps 749 mmHg 76%
    12:00 +13°C° 0 mm 5 mps 749 mmHg 74%
    13:00 +14°C° 0 mm 5 mps 749 mmHg 72%
    14:00 +14°C° 0 mm 5 mps 749 mmHg 72%
    15:00 +14°C° 0 mm 5 mps 749 mmHg 71%
    16:00 +15°C° 0 mm 5 mps 749 mmHg 71%
    17:00 +14°C° 0 mm 4 mps 749 mmHg 74%
    18:00 +13°C° 0 mm 3 mps 748 mmHg 76%
    19:00 +14°C° 0 mm 2 mps 748 mmHg 79%
    20:00 +12°C° 0 mm 2 mps 749 mmHg 82%
    21:00 +10°C° 0 mm 2 mps 749 mmHg 84%
    22:00 +9°C° 0 mm 2 mps 749 mmHg 87%
    23:00 +9°C° 0 mm 2 mps 749 mmHg 86%

    Day after tomorrow, 26 May, Sunday

    Time Temperature Precipitation Wind Pressure Humidity
    00:00 +10°C° 0 mm 2 mps 749 mmHg 85%
    01:00 +10°C° 0 mm 3 mps 749 mmHg 84%
    02:00 +10°C° 0 mm 3 mps 748 mmHg 87%
    03:00 +9°C° 0 mm 3 mps 748 mmHg 91%
    04:00 +8°C° 0 mm 3 mps 748 mmHg 94%
    05:00 +8°C° 0 mm 4 mps 748 mmHg 89%
    06:00 +9°C° 0 mm 5 mps 748 mmHg 84%
    07:00 +9°C° 0 mm 6 mps 748 mmHg 79%
    08:00 +10°C° 0 mm 6 mps 748 mmHg 79%
    09:00 +10°C° 0 mm 6 mps 748 mmHg 78%
    10:00 +10°C° 0 mm 6 mps 747 mmHg 77%
    11:00 +11°C° 0 mm 6 mps 747 mmHg 73%
    12:00 +12°C° 0 mm 7 mps 747 mmHg 69%
    13:00 +14°C° 0 mm 7 mps 747 mmHg 65%
    14:00 +14°C° 0.1 mm 6 mps 747 mmHg 70%
    15:00 +13°C° 0.1 mm 5 mps 747 mmHg 76%
    16:00 +13°C° 0.1 mm 3 mps 747 mmHg 81%
    17:00 +12°C° 0 mm 3 mps 747 mmHg 82%
    18:00 +12°C° 0 mm 3 mps 747 mmHg 84%
    19:00 +12°C° 0 mm 3 mps 746 mmHg 85%
    20:00 +12°C° 0 mm 3 mps 746 mmHg 86%
    21:00 +12°C° 0 mm 3 mps 746 mmHg 87%
    22:00 +11°C° 0 mm 3 mps 746 mmHg 89%
    23:00 +11°C° 0 mm 4 mps 746 mmHg 89%

    27 May, Monday

    Time Temperature Precipitation Wind Pressure Humidity
    00:00 +11°C° 0 mm 4 mps 745 mmHg 90%
    01:00 +11°C° 0 mm 4 mps 745 mmHg 91%
    02:00 +12°C° 0.1 mm 5 mps 744 mmHg 89%
    03:00 +13°C° 0.1 mm 6 mps 744 mmHg 87%
    04:00 +13°C° 0.1 mm 6 mps 744 mmHg 85%
    05:00 +13°C° 0.2 mm 6 mps 743 mmHg 86%
    06:00 +14°C° 0.2 mm 6 mps 743 mmHg 87%
    07:00 +14°C° 0.2 mm 6 mps 743 mmHg 89%
    08:00 +14°C° 1 mm 5 mps 744 mmHg 90%
    09:00 +14°C° 1 mm 5 mps 744 mmHg 92%
    10:00 +14°C° 1 mm 5 mps 744 mmHg 93%
    11:00 +15°C° 0.5 mm 5 mps 744 mmHg 91%
    12:00 +15°C° 0.5 mm 5 mps 744 mmHg 88%
    13:00 +16°C° 0.5 mm 5 mps 744 mmHg 86%
    14:00 +16°C° 0.5 mm 5 mps 744 mmHg 82%
    15:00 +16°C° 0.5 mm 5 mps 745 mmHg 79%
    16:00 +16°C° 0.5 mm 5 mps 745 mmHg 76%
    17:00 +15°C° 0.1 mm 4 mps 745 mmHg 79%
    18:00 +14°C° 0.1 mm 4 mps 745 mmHg 82%
    19:00 +13°C° 0.1 mm 3 mps 746 mmHg 85%
    20:00 +13°C° 0 mm 2 mps 746 mmHg 88%
    21:00 +10°C° 0 mm 2 mps 746 mmHg 90%
    22:00 +10°C° 0 mm 1 mps 746 mmHg 93%
    23:00 +10°C° 0 mm 1 mps 747 mmHg 94%

    28 May, Tuesday

    Time Temperature Precipitation Wind Pressure Humidity
    00:00 +9°C° 0 mm 1 mps 747 mmHg 94%
    01:00 +9°C° 0 mm 1 mps 747 mmHg 95%
    02:00 +9°C° 0 mm 1 mps 747 mmHg 95%
    03:00 +9°C° 0 mm 1 mps 747 mmHg 95%
    04:00 +8°C° 0 mm 1 mps 747 mmHg 95%
    05:00 +9°C° 0 mm 0 mps 747 mmHg 91%
    06:00 +11°C° 0 mm 0 mps 747 mmHg 86%
    07:00 +12°C° 0 mm 0 mps 747 mmHg 82%
    08:00 +14°C° 0 mm 0 mps 747 mmHg 76%
    09:00 +15°C° 0 mm 0 mps 747 mmHg 70%
    10:00 +16°C° 0 mm 0 mps 747 mmHg 64%
    11:00 +18°C° 0.1 mm 1 mps 747 mmHg 66%
    12:00 +18°C° 0.1 mm 1 mps 747 mmHg 67%
    13:00 +17°C° 0.1 mm 2 mps 747 mmHg 68%
    14:00 +16°C° 0.1 mm 2 mps 746 mmHg 72%
    15:00 +14°C° 0.1 mm 3 mps 746 mmHg 75%
    16:00 +14°C° 0.1 mm 3 mps 746 mmHg 79%
    17:00 +13°C° 0 mm 3 mps 746 mmHg 80%
    18:00 +13°C° 0 mm 3 mps 746 mmHg 81%
    19:00 +14°C° 0 mm 2 mps 746 mmHg 82%
    20:00 +13°C° 0 mm 2 mps 746 mmHg 86%
    21:00 +12°C° 0 mm 2 mps 746 mmHg 90%
    22:00 +11°C° 0 mm 1 mps 747 mmHg 93%
    23:00 +11°C° 0 mm 1 mps 747 mmHg 94%

    29 May, Wednesday

    Time Temperature Precipitation Wind Pressure Humidity
    00:00 +11°C° 0 mm 1 mps 747 mmHg 95%
    01:00 +11°C° 0 mm 1 mps 747 mmHg 95%
    02:00 +11°C° 0 mm 1 mps 747 mmHg 95%
    03:00 +11°C° 0 mm 1 mps 747 mmHg 95%
    04:00 +10°C° 0 mm 1 mps 747 mmHg 95%
    05:00 +12°C° 0 mm 1 mps 747 mmHg 91%
    06:00 +13°C° 0 mm 2 mps 748 mmHg 87%
    07:00 +14°C° 0 mm 2 mps 748 mmHg 83%
    08:00 +14°C° 0 mm 3 mps 748 mmHg 78%
    09:00 +14°C° 0 mm 3 mps 749 mmHg 73%
    10:00 +15°C° 0 mm 4 mps 749 mmHg 69%
    11:00 +15°C° 0 mm 4 mps 749 mmHg 70%
    12:00 +14°C° 0 mm 5 mps 750 mmHg 72%
    13:00 +14°C° 0 mm 5 mps 750 mmHg 73%
    14:00 +13°C° 0 mm 5 mps 750 mmHg 72%
    15:00 +13°C° 0 mm 5 mps 750 mmHg 71%
    16:00 +12°C° 0 mm 5 mps 750 mmHg 69%
    17:00 +11°C° 0 mm 4 mps 751 mmHg 71%
    18:00 +11°C° 0 mm 4 mps 751 mmHg 73%
    19:00 +10°C° 0 mm 3 mps 751 mmHg 75%
    20:00 +9°C° 0 mm 3 mps 752 mmHg 77%
    21:00 +9°C° 0 mm 3 mps 752 mmHg 79%
    22:00 +8°C° 0 mm 3 mps 753 mmHg 81%
    23:00 +8°C° 0 mm 3 mps 753 mmHg 83%
    Show more